Theta_e
268 268 267 267 267 266 266 266 266 266 266 266 266 266 265 266 265 265 265 265 265 265 265 264 264 265 264 265 265 265 265 265 265 265 266 266 266 266 266 266 266 266 266 266 266 266 265 265 265 266 267 265 265 266 266 267 267 269 270 270 270 271 271 272 272 272 276 277 276 276 276 276 275 276 277 278 279 281 283 282 282 282 283 283 284
268 267 267 266 266 266 266 266 266 266 266 266 265 265 265 265 265 265 264 265 265 265 264 263 264 264 264 264 264 264 264 265 265 266 266 266 266 266 266 266 266 265 266 265 265 266 265 264 264 264 265 265 265 264 264 265 265 267 268 269 270 270 272 270 269 272 273 276 275 276 275 275 275 276 276 277 277 279 279 281 281 282 282 282 283
268 267 266 265 265 266 266 266 266 266 265 265 265 265 265 265 265 264 264 264 265 264 264 264 264 264 264 264 264 264 264 264 265 266 266 266 266 266 266 266 266 265 265 265 265 265 265 264 264 264 264 263 264 264 265 264 265 265 266 268 268 269 270 271 270 269 271 274 277 276 275 276 274 275 276 277 277 278 277 278 279 280 281 282 282
268 267 266 265 265 265 265 265 265 265 264 265 264 264 264 264 265 264 264 264 264 264 264 264 264 264 263 263 263 263 264 264 264 265 266 266 266 266 266 266 266 265 265 265 265 265 264 264 264 264 264 263 264 264 264 264 265 265 266 267 268 269 270 270 271 270 271 272 275 275 276 275 274 275 275 276 274 275 275 277 278 278 279 281 281
267 267 266 265 265 265 265 265 264 264 264 264 264 264 264 264 264 264 264 264 264 264 264 264 264 263 263 263 263 263 263 264 264 265 265 266 266 266 266 265 265 265 265 265 266 265 265 265 264 264 264 263 263 263 264 263 264 265 265 266 267 268 269 270 270 270 270 270 273 276 276 275 275 275 275 274 273 273 272 274 276 277 278 280 280
267 266 266 265 264 264 264 264 264 264 264 264 264 264 264 264 264 264 264 263 263 263 263 263 263 263 263 263 263 263 264 264 264 264 265 265 265 265 265 265 265 265 265 265 265 265 265 265 265 265 264 263 263 263 263 263 263 264 264 265 266 267 268 268 269 269 270 270 271 273 275 274 274 274 275 275 272 271 272 273 274 274 276 277 278
266 266 265 265 264 264 264 264 264 264 264 264 264 264 264 264 264 263 264 263 263 263 263 262 263 262 262 262 263 263 263 264 264 264 264 265 265 265 265 265 265 265 265 265 265 265 265 265 265 265 265 264 263 263 263 263 263 263 263 263 264 264 265 266 267 267 268 268 270 272 273 275 275 274 275 275 275 274 272 272 271 271 274 275 277
266 265 265 264 264 264 264 264 264 264 264 264 264 264 264 264 263 263 263 263 263 262 262 262 262 262 262 262 263 263 263 263 263 264 264 264 264 264 265 265 265 265 266 266 267 266 267 267 266 266 265 265 264 263 263 263 263 262 263 263 263 263 264 265 266 266 266 266 267 268 271 272 274 274 276 276 273 273 272 271 272 273 273 272 275
266 265 265 264 264 264 264 264 264 264 264 264 263 263 263 263 263 263 263 263 262 262 262 262 261 261 261 262 262 262 262 262 263 263 263 263 263 263 264 264 265 266 266 267 267 267 267 267 267 267 267 268 269 268 267 267 263 262 263 263 263 263 264 264 265 265 265 266 267 269 270 271 272 273 273 272 273 273 274 273 272 272 272 274 273
265 265 264 264 264 264 264 264 263 264 263 263 263 263 263 263 263 262 262 262 261 261 261 261 260 260 260 261 261 261 261 262 264 267 268 265 264 264 265 265 266 266 267 267 267 268 268 268 268 270 270 270 270 271 271 271 271 267 264 263 263 264 263 263 263 264 265 264 265 266 267 268 270 272 272 273 274 275 273 272 271 272 273 271 274
265 265 264 264 264 264 264 263 263 263 263 263 263 263 262 262 262 262 261 261 261 260 260 260 260 260 260 260 261 261 262 263 266 268 270 271 270 268 267 267 267 267 267 267 267 268 269 269 269 269 270 270 270 271 272 273 273 273 273 271 268 265 263 263 263 264 264 264 265 265 266 267 269 271 272 273 274 273 273 274 273 272 270 270 270
265 264 265 264 264 264 263 263 263 262 262 262 262 262 262 262 261 261 260 260 260 260 259 259 259 260 260 260 260 261 261 265 268 269 270 272 272 270 270 270 271 271 271 271 271 270 269 269 269 268 268 268 268 269 271 273 273 274 274 274 274 273 271 267 264 264 264 264 264 265 266 266 267 268 269 268 270 271 272 273 273 272 272 273 273
265 264 264 264 264 263 263 263 262 262 262 262 262 261 261 261 260 260 259 259 259 258 259 259 259 260 260 259 260 260 260 265 267 269 271 272 273 273 271 272 272 272 273 273 273 273 272 270 269 269 268 270 270 268 267 267 271 273 274 274 274 274 274 274 273 269 267 266 265 265 266 266 266 268 268 268 270 270 270 270 270 272 272 273 274
264 264 264 264 263 263 263 262 262 261 261 261 260 260 260 259 259 259 258 259 258 258 258 259 259 259 259 258 258 259 259 263 267 269 271 272 273 274 272 272 273 273 274 274 274 274 273 271 270 269 268 268 268 268 266 265 264 265 267 269 269 271 274 275 275 276 273 270 268 267 268 268 267 268 269 271 271 268 268 268 270 270 271 271 272
264 264 263 263 263 263 263 262 261 261 261 260 260 259 259 259 259 258 258 258 258 257 257 257 258 258 258 258 258 258 259 265 268 270 271 273 274 274 273 274 274 274 274 273 273 274 274 273 271 271 270 268 268 268 267 266 265 264 263 264 265 266 267 268 269 271 273 273 273 272 272 271 270 270 269 270 271 271 270 269 270 271 272 273 273
264 263 263 263 262 263 262 261 261 261 260 260 259 259 259 258 258 258 258 258 257 257 257 257 257 257 258 258 258 258 259 266 269 270 272 273 274 273 273 274 274 273 271 270 272 275 275 273 272 271 271 270 271 273 271 268 267 265 265 265 265 265 266 269 272 273 271 270 270 271 272 274 276 273 273 272 271 271 271 270 269 267 267 268 269
263 263 263 263 262 262 262 261 260 260 260 259 258 258 258 258 258 258 257 257 257 257 257 257 257 257 258 258 258 259 260 264 269 270 272 273 274 273 273 274 273 272 271 270 270 272 274 274 273 272 271 271 273 274 275 274 268 267 267 266 266 266 266 267 272 275 276 277 277 276 276 277 277 278 278 278 275 273 271 269 268 268 267 267 269
263 263 263 262 262 262 262 261 260 259 259 258 258 258 258 258 258 258 257 257 257 257 257 257 257 258 258 258 259 259 261 264 269 271 272 274 274 273 273 272 272 271 268 267 268 270 272 276 276 273 272 272 274 276 276 275 271 268 267 267 266 266 266 267 267 269 275 277 278 278 278 278 278 278 278 278 279 278 272 269 269 268 268 269 268
263 263 263 263 262 262 261 261 260 259 258 258 258 258 258 257 258 258 257 257 256 257 257 257 258 259 260 260 263 263 263 265 269 271 272 273 273 273 272 270 270 269 267 267 268 268 269 273 276 276 275 274 276 277 278 277 273 271 269 268 267 266 267 268 268 267 267 268 270 272 274 276 276 276 276 277 278 278 276 273 273 271 269 269 270
264 264 263 262 262 261 261 260 260 259 258 258 257 257 257 257 257 257 257 256 256 257 257 258 258 258 260 261 261 262 262 263 264 269 271 273 275 273 271 268 267 267 268 268 268 269 269 268 272 275 276 276 277 278 278 279 276 274 273 270 269 268 271 270 269 268 268 268 268 269 270 271 272 273 273 274 276 276 276 275 275 274 272 271 272
264 263 263 262 261 261 261 260 259 259 258 258 258 257 256 257 256 256 256 256 256 256 256 257 257 258 259 260 261 261 262 262 263 269 271 273 275 273 270 268 267 266 266 268 268 269 270 270 268 273 275 276 276 277 278 278 278 276 275 272 272 273 274 270 271 273 270 269 269 269 269 269 268 268 269 270 272 273 275 275 275 275 275 273 273
263 262 262 261 261 260 260 259 259 258 258 257 256 255 256 256 256 255 255 255 255 255 256 256 257 258 259 260 260 261 262 263 263 267 271 273 273 273 271 269 270 269 269 268 269 270 272 272 271 273 275 275 276 277 277 277 278 276 276 278 278 278 276 275 273 272 272 271 269 269 268 268 268 268 268 268 269 270 271 273 274 275 275 275 274
263 262 261 261 260 259 259 258 258 258 257 257 256 255 255 255 255 255 254 254 254 254 255 256 256 257 258 259 260 261 261 263 267 268 270 271 272 272 273 272 273 272 270 270 271 271 273 273 273 274 275 275 276 276 277 277 277 276 278 279 279 278 278 277 276 274 272 271 270 269 269 268 268 267 267 267 268 269 270 271 272 273 275 275 275
262 261 260 260 259 259 258 258 258 257 256 256 255 254 254 254 254 254 254 254 254 254 255 257 257 257 258 259 260 261 262 265 267 269 268 270 271 272 272 272 273 271 271 270 271 272 272 271 271 274 275 275 276 276 277 277 275 276 277 277 277 277 276 276 276 275 273 272 270 269 269 270 269 268 268 268 268 268 269 270 270 271 273 274 274
261 260 260 259 259 258 258 257 257 256 256 255 254 254 253 253 253 254 254 254 254 255 256 257 257 258 258 259 260 261 263 262 260 264 268 269 270 271 271 272 272 273 271 271 272 271 273 274 275 275 275 275 275 274 273 273 274 275 275 275 275 273 273 274 274 275 273 271 271 271 270 271 270 270 270 268 269 270 270 270 270 270 271 272 273
260 259 259 259 258 257 257 256 256 256 255 255 254 254 253 253 253 254 255 255 255 255 256 257 257 258 258 259 260 262 262 257 257 257 263 265 267 269 271 272 272 272 272 272 272 273 274 274 274 273 272 272 271 269 268 268 272 272 272 272 270 271 271 271 272 273 273 273 272 271 271 271 271 271 271 271 270 270 270 269 269 268 269 269 270
260 259 259 258 257 256 256 255 255 254 254 254 254 254 254 253 254 255 255 254 255 255 256 257 257 258 259 260 262 260 257 256 256 256 258 259 261 264 267 267 270 271 269 268 270 270 270 270 270 270 269 270 270 269 269 268 266 266 264 266 268 269 270 271 272 273 274 275 274 273 273 272 272 271 272 271 271 271 271 271 270 269 269 269 269
259 259 258 257 256 255 255 255 255 254 254 254 253 253 254 254 254 254 254 254 254 254 255 256 257 258 259 261 260 258 256 254 256 257 259 261 263 265 267 267 267 267 267 269 266 267 265 266 265 262 262 262 262 262 263 263 264 264 264 265 267 269 270 272 273 272 272 273 274 275 275 274 273 273 273 272 272 272 273 272 271 271 271 271 269
260 259 258 257 256 256 255 255 255 254 254 254 254 255 254 254 254 255 256 255 255 255 255 256 258 258 259 262 262 260 257 257 258 265 265 268 267 267 268 267 268 268 270 269 264 262 261 259 259 259 259 260 261 260 261 260 261 262 262 263 265 266 267 268 267 268 269 270 271 272 274 275 274 274 274 274 273 273 274 273 273 272 272 272 271
259 258 257 256 255 255 255 254 254 254 254 254 254 254 257 259 257 255 255 260 261 264 263 259 260 260 262 264 264 262 260 261 267 270 271 271 271 271 271 271 271 270 270 269 263 256 255 253 256 257 257 257 258 258 258 258 258 258 259 262 263 264 265 265 265 265 267 268 269 270 271 273 275 275 275 274 274 274 275 275 273 274 273 272 271
258 258 257 256 255 255 255 254 254 254 254 254 254 254 254 256 263 265 262 262 264 266 268 269 270 270 267 264 265 268 268 268 269 270 271 270 270 270 270 270 269 269 269 263 257 255 254 255 255 255 256 255 255 255 256 256 256 256 257 258 260 261 262 262 263 264 265 266 267 268 270 270 271 275 275 275 275 275 274 275 275 275 274 273 273
258 258 257 256 256 255 255 254 254 253 253 253 253 253 254 254 255 260 265 266 267 268 269 269 270 269 269 268 266 264 267 268 269 270 270 269 269 269 269 269 268 268 266 265 256 254 254 253 252 252 253 253 254 254 254 254 255 255 255 256 257 259 259 259 261 261 263 265 265 266 267 268 270 271 273 275 275 275 275 275 275 274 274 274 274
260 259 257 256 256 255 255 254 254 253 253 253 253 253 253 253 254 255 258 265 266 266 267 268 268 267 267 267 268 267 267 268 269 269 269 268 268 268 269 268 267 265 263 255 253 253 253 252 251 251 251 251 251 252 252 253 253 254 254 255 255 256 257 258 259 260 264 265 265 264 266 267 268 269 270 272 274 275 275 275 275 275 275 274 274
261 260 258 256 256 255 254 254 254 253 254 253 253 253 253 253 253 254 254 254 256 260 264 265 265 265 265 266 266 267 267 268 268 267 267 267 267 267 266 264 266 264 259 252 252 252 252 252 252 251 250 251 251 252 252 252 252 252 253 253 254 255 256 257 258 260 262 263 262 263 265 265 266 266 268 270 271 273 275 275 275 274 274 274 274
261 259 258 257 256 255 255 255 254 254 254 253 254 253 253 254 254 254 254 254 253 252 250 251 259 262 261 262 264 266 267 267 266 266 266 265 265 266 264 254 253 252 252 251 251 249 250 250 250 251 250 250 251 251 251 250 251 251 252 252 253 254 254 255 257 259 260 259 260 261 263 264 264 265 266 266 267 269 271 274 275 275 274 274 274
260 260 258 257 256 255 255 255 254 254 254 254 254 254 254 254 254 254 255 255 253 251 251 248 247 255 261 263 263 264 266 266 265 265 264 263 263 263 252 248 249 249 250 249 249 250 250 250 250 250 250 250 250 250 250 251 251 252 253 254 254 253 253 254 257 257 257 257 258 260 260 261 262 263 264 265 266 267 269 270 272 275 275 274 274
260 259 258 257 256 255 255 254 254 254 254 254 254 254 254 254 254 254 254 254 254 252 249 247 248 250 256 256 260 261 264 265 264 263 263 261 261 253 248 248 247 248 249 249 249 249 248 247 248 248 249 249 249 249 250 250 251 251 253 253 253 253 254 256 256 255 253 255 255 255 256 257 259 260 261 262 264 265 267 268 270 271 273 274 274
260 259 258 257 256 255 254 254 254 255 254 254 254 254 254 253 254 254 254 252 254 253 252 250 255 249 248 251 258 256 255 260 261 259 257 256 251 248 248 248 248 247 247 247 248 246 246 247 246 247 248 248 249 249 250 250 250 250 251 252 252 253 256 254 254 253 254 253 253 253 254 255 257 258 260 261 262 263 265 266 267 268 270 271 273
259 258 257 257 256 255 254 254 254 254 254 254 254 254 254 253 254 253 253 253 254 253 252 250 250 249 249 248 248 252 254 249 247 246 247 246 246 245 245 246 246 247 247 246 248 247 246 246 247 248 248 247 248 248 248 250 249 249 250 250 251 251 252 252 252 252 252 252 252 252 252 253 255 256 258 259 260 262 263 264 265 266 267 268 271
258 257 257 257 255 255 254 254 254 254 254 254 254 254 254 254 254 254 253 252 252 252 251 251 251 250 250 250 251 249 250 248 247 246 246 246 246 245 244 245 244 245 246 245 245 245 246 245 245 245 246 246 246 247 248 249 249 250 249 249 250 251 252 252 252 252 252 252 252 252 252 253 253 255 256 258 260 262 263 263 264 265 266 267 268
257 257 256 256 255 255 254 254 254 253 254 254 254 254 254 255 254 254 253 253 252 252 251 251 251 250 251 256 259 256 249 248 248 247 247 247 246 245 245 245 245 245 246 246 246 246 245 245 245 245 245 246 247 248 248 248 249 250 250 251 250 251 251 252 252 252 252 252 252 252 253 253 254 255 256 257 261 262 261 262 263 264 265 266 268
257 256 255 255 255 255 254 254 254 254 254 254 254 254 254 255 255 254 254 253 252 252 251 250 251 249 254 260 261 260 251 247 247 247 247 246 245 246 246 246 245 245 245 244 244 246 246 246 246 246 245 246 247 248 248 247 248 249 250 250 251 251 251 251 252 252 252 251 251 252 253 254 255 256 257 259 258 259 260 261 262 263 264 265 266
256 255 255 255 255 254 254 254 254 254 254 254 254 255 255 255 255 255 254 253 252 252 251 251 251 250 251 256 257 257 250 248 250 248 247 246 246 247 246 245 243 243 243 244 244 245 245 245 245 245 246 247 247 247 248 248 248 248 249 249 250 251 251 251 251 252 252 251 251 252 252 253 254 254 255 256 258 258 259 260 261 262 263 264 265
256 255 255 255 255 255 255 255 255 255 255 255 255 255 255 255 255 254 254 254 253 253 253 252 251 251 251 251 252 250 248 247 246 246 248 248 247 246 244 243 242 243 243 243 244 244 244 245 245 245 245 245 246 246 247 248 249 249 248 248 249 251 250 250 251 251 252 252 252 252 252 253 254 254 255 256 257 257 258 259 260 261 261 262 263
255 255 255 254 255 255 255 255 255 255 255 255 255 255 255 255 254 254 254 253 253 253 253 252 251 251 251 249 248 249 248 248 249 249 248 247 247 246 244 242 242 244 243 244 244 244 244 245 245 244 245 245 246 245 246 247 248 249 249 249 248 249 250 250 251 252 252 252 252 252 253 253 253 253 254 255 256 257 258 259 260 260 261 261 262
255 255 254 254 254 255 255 255 255 255 255 255 254 254 254 254 254 254 254 253 253 253 252 252 251 251 251 250 249 250 248 247 248 248 248 247 246 245 243 243 243 243 244 244 245 245 246 246 246 245 245 245 246 246 246 246 248 249 249 248 249 250 250 250 251 252 252 252 252 253 253 253 253 253 255 255 255 256 257 259 259 260 260 261 261
255 255 254 254 254 254 255 255 254 254 254 254 254 254 254 254 254 254 253 254 253 253 252 252 251 251 251 250 250 250 249 249 248 248 248 247 245 244 243 243 244 244 244 245 246 245 245 246 246 245 246 246 246 247 246 246 246 247 248 248 248 249 249 250 251 251 251 252 253 253 252 252 252 253 253 254 254 255 256 257 258 259 259 259 260
255 254 254 254 255 254 254 254 254 255 254 254 254 254 254 254 253 253 253 253 253 253 252 251 251 251 250 250 250 249 249 249 248 248 247 247 246 244 243 244 245 245 245 245 244 246 246 245 245 244 245 246 246 246 246 246 246 247 246 246 247 248 251 251 250 250 251 252 253 252 252 251 252 252 253 253 253 253 254 256 257 258 258 259 259
255 254 254 254 254 254 254 254 254 254 254 254 254 254 254 253 253 253 253 253 253 253 252 252 251 250 250 250 250 249 249 249 248 248 247 247 245 244 243 244 247 245 246 245 244 244 244 244 245 245 245 245 245 245 245 245 246 245 246 245 248 251 251 251 251 250 252 252 251 251 251 251 251 251 252 252 252 252 253 254 255 257 258 258 259
254 254 254 254 254 254 254 254 254 254 254 254 254 253 254 253 253 253 252 252 252 252 251 251 251 251 250 250 250 249 249 249 248 248 247 246 245 245 245 245 245 245 245 244 244 244 244 244 244 245 245 245 245 244 244 245 244 245 245 247 251 251 250 251 251 251 251 251 251 250 250 250 250 250 251 251 251 252 252 253 254 255 256 257 257
254 254 254 254 254 254 254 254 254 254 254 253 253 253 253 253 253 253 252 252 252 252 251 251 250 250 249 250 250 250 249 249 248 247 247 247 246 245 246 245 246 245 244 244 244 244 244 244 244 245 245 246 245 245 244 244 244 246 249 251 250 250 250 250 250 250 252 252 249 250 250 250 250 251 251 251 251 251 252 253 253 253 254 255 256
Wind_Speed
11 11 9 9 8 10 10 9 10 9 10 10 10 9 6 8 6 6 5 7 5 6 6 4 4 4 4 5 6 5 5 6 7 7 7 7 6 6 6 6 7 7 6 7 6 5 6 6 7 7 6 5 4 4 3 3 3 4 5 4 5 5 6 8 8 7 5 2 3 3 4 1 1 1 3 2 1 1 3 1 2 2 2 3 2
10 9 10 9 10 10 10 9 9 9 10 10 8 6 5 6 5 5 7 7 7 7 6 3 4 5 5 6 6 6 6 7 7 7 8 7 7 6 7 7 8 8 6 8 7 6 5 6 5 5 5 6 6 5 5 4 4 5 5 5 5 6 6 6 7 8 6 6 5 4 2 1 1 1 2 1 0 1 2 0 0 0 0 1 3
8 7 7 8 8 8 8 9 8 9 9 7 7 7 6 6 6 7 8 7 6 6 6 5 5 6 6 6 6 6 7 8 8 8 8 8 9 9 8 9 8 8 9 9 8 6 7 8 8 7 5 6 6 6 5 6 5 6 7 6 7 6 6 5 6 7 8 5 4 5 2 1 1 3 0 0 1 1 1 1 1 1 1 1 1
8 8 8 8 8 8 8 8 9 9 8 7 8 8 7 7 7 9 8 6 7 6 5 6 6 6 6 6 6 7 8 8 8 8 9 10 10 10 10 9 7 6 6 5 5 5 7 8 8 7 7 8 8 8 7 7 7 7 7 7 7 7 6 6 6 6 8 7 4 1 3 4 2 3 2 1 1 1 1 1 1 0 2 1 2
8 8 8 8 8 8 9 8 9 9 10 8 9 9 9 8 7 8 6 7 7 6 6 6 6 6 6 6 7 8 9 9 9 10 9 9 9 8 8 7 8 8 8 9 10 9 9 9 9 8 8 9 8 8 7 7 7 7 7 7 7 6 6 5 5 5 6 7 7 4 3 2 3 2 1 3 4 3 1 1 2 2 1 2 2
9 9 8 9 8 9 9 8 9 10 10 9 9 9 9 9 8 7 7 7 7 6 7 6 5 6 6 7 8 9 9 9 10 10 10 10 10 10 9 10 10 10 9 10 9 9 9 9 9 9 9 10 10 9 8 9 8 8 8 7 6 5 6 6 5 6 6 6 7 6 4 3 3 3 3 3 4 4 4 4 3 1 1 1 2
9 10 10 10 9 9 9 9 9 9 9 9 8 8 9 9 8 7 6 7 7 6 5 5 6 6 7 7 9 9 10 9 10 10 10 10 9 9 10 10 9 9 9 10 10 10 10 10 10 10 11 11 11 11 9 9 8 9 8 8 6 6 6 6 5 5 5 5 6 6 7 5 4 5 3 3 4 4 4 4 3 2 1 1 2
10 10 10 10 10 9 8 8 9 9 8 8 9 9 9 7 6 5 6 6 5 5 5 6 6 6 7 9 9 9 9 10 10 10 9 9 9 9 10 11 11 11 11 11 11 11 11 11 11 11 12 12 12 11 10 10 8 8 8 7 6 6 6 6 6 5 5 4 4 5 6 7 6 5 5 4 3 2 0 2 4 4 4 2 3
9 10 9 10 10 9 8 7 7 8 8 9 9 9 9 7 6 5 5 5 4 5 5 6 6 7 8 9 10 9 9 10 9 9 9 10 9 10 10 11 11 11 11 11 11 12 11 11 12 12 13 18 20 17 15 14 9 9 9 7 8 7 7 7 7 6 5 4 5 5 6 7 6 4 5 4 5 5 5 2 0 2 3 3 3
10 10 10 10 9 8 8 8 8 8 9 9 9 9 8 7 5 5 6 4 3 4 4 5 6 7 8 10 9 9 9 8 12 17 16 9 9 9 10 11 11 11 12 11 11 11 13 11 12 21 22 22 22 23 23 23 22 14 10 8 9 9 8 7 7 6 5 6 6 5 7 7 7 5 5 5 5 4 2 1 3 4 4 4 5
11 10 11 10 9 9 8 9 8 9 9 8 7 7 7 6 5 5 5 4 5 4 5 7 7 8 9 10 10 10 9 9 16 17 18 20 13 10 9 9 11 12 11 11 11 11 10 13 12 15 18 19 18 23 23 23 22 23 24 21 16 12 9 9 9 7 7 7 7 7 8 8 7 6 6 4 3 5 5 5 5 4 1 2 6
10 10 9 9 9 9 9 9 9 9 8 8 7 6 6 6 5 5 4 4 4 4 6 7 8 9 9 10 10 10 9 14 17 18 19 20 18 12 10 10 10 10 11 11 11 11 11 10 9 9 10 12 12 13 18 22 23 22 22 21 21 24 21 14 10 9 9 8 8 9 7 8 7 6 6 3 2 3 3 3 4 4 4 4 4
9 9 9 9 9 9 9 9 8 7 8 7 6 5 5 6 5 4 4 4 3 5 8 9 9 9 9 10 9 9 8 15 18 20 20 21 20 16 10 11 10 11 11 10 11 11 9 8 8 8 9 19 15 12 11 12 19 23 21 21 20 20 21 25 23 14 9 11 10 10 10 7 8 8 5 4 3 4 3 4 3 3 3 5 4
8 9 9 10 9 9 8 7 7 5 6 7 6 6 6 6 4 3 3 4 6 7 7 9 9 8 8 8 9 9 10 15 20 21 20 21 20 17 10 11 12 13 13 10 6 6 7 7 7 8 8 9 9 10 10 10 10 10 11 10 8 12 18 22 23 25 19 12 11 11 9 9 11 7 6 6 7 6 6 6 5 4 4 4 5
7 8 8 9 8 8 9 7 7 6 7 7 6 7 7 6 6 5 5 6 7 7 7 8 7 7 8 8 8 9 10 18 19 20 20 20 19 16 9 10 11 10 7 5 5 5 6 7 7 8 6 8 8 11 10 10 9 9 9 10 10 10 8 9 10 9 10 10 9 11 11 11 11 10 8 8 9 9 7 7 7 6 6 6 5
7 8 8 9 8 8 8 7 7 6 6 6 7 7 6 7 7 4 4 5 5 6 6 7 8 9 9 9 9 10 10 19 19 19 19 18 18 10 9 10 9 4 4 4 4 4 4 6 6 6 7 7 10 16 15 10 9 10 10 11 10 9 10 14 17 15 12 9 9 9 7 8 12 11 12 11 10 9 7 7 5 4 4 4 8
9 8 7 8 8 8 8 8 10 9 6 6 6 7 7 6 4 3 5 7 7 6 7 6 6 7 8 8 9 9 10 15 18 18 18 18 14 7 8 7 3 3 3 3 3 4 4 5 6 6 7 6 11 15 16 16 10 10 10 11 10 8 11 11 16 21 23 24 24 23 23 22 23 22 20 22 16 11 9 9 11 6 6 7 8
8 8 9 7 8 9 7 9 11 8 7 8 6 6 5 4 4 4 6 6 7 7 5 6 6 7 9 9 9 9 10 13 17 17 16 17 13 8 5 2 3 3 3 3 4 4 5 9 8 7 6 7 13 17 17 14 9 9 9 11 11 11 12 9 6 9 19 21 23 25 25 25 25 25 25 24 22 16 10 12 8 7 10 11 10
13 13 10 9 9 9 11 9 7 11 10 7 6 7 6 5 4 3 5 5 7 6 6 7 7 7 8 9 13 12 10 12 16 16 17 15 12 6 2 1 2 3 2 3 4 5 4 6 9 7 6 9 15 16 18 14 9 9 11 9 9 14 13 8 9 9 9 8 11 13 13 18 16 14 14 25 25 23 12 10 8 9 11 9 7
14 11 10 9 9 7 6 10 9 11 9 7 5 6 3 3 5 5 5 5 5 5 6 6 7 8 7 8 8 8 8 10 12 17 17 16 15 5 2 0 2 3 3 4 5 6 5 5 6 8 11 12 13 15 16 18 11 12 12 8 9 15 11 8 11 10 9 10 11 10 11 9 8 8 6 8 12 14 15 13 10 9 10 9 8
9 9 9 9 8 7 6 11 12 10 8 7 5 5 4 5 5 5 6 5 4 5 6 6 7 8 7 8 8 9 8 9 11 16 16 15 13 7 0 1 2 3 4 6 5 6 6 6 4 7 11 13 14 15 16 17 16 7 6 10 12 14 10 7 11 15 10 10 10 8 8 7 7 6 7 8 8 9 10 12 12 12 10 9 9
9 9 8 7 7 7 7 8 10 10 8 7 7 6 4 5 5 4 4 4 5 6 6 6 6 7 7 7 8 9 8 13 10 13 14 11 9 10 4 2 4 5 6 7 7 7 7 5 4 6 11 14 16 17 18 18 19 11 10 15 17 21 15 11 9 7 8 8 7 7 7 7 7 7 8 9 9 11 10 10 12 13 12 11 11
10 9 7 8 9 8 8 11 8 8 8 8 7 6 4 4 4 4 5 5 6 6 7 6 6 6 7 7 7 7 7 8 13 9 6 7 9 10 12 9 11 7 6 6 6 5 4 4 4 9 13 16 19 20 18 18 15 11 18 18 19 19 15 8 9 8 8 8 7 8 8 7 7 9 8 10 11 10 10 10 11 12 13 12 11
11 10 12 8 8 8 10 10 10 9 8 5 5 6 5 4 4 4 5 5 5 5 5 5 5 6 6 6 5 5 6 5 5 4 4 7 9 12 12 13 12 7 6 6 6 6 4 3 5 13 17 19 19 19 18 12 5 8 9 11 11 8 4 4 4 6 8 8 7 8 8 8 8 8 10 10 8 8 9 9 10 11 12 12 12
12 13 11 10 12 10 9 9 9 9 7 7 6 4 5 5 4 4 5 5 5 5 5 4 4 4 5 6 6 5 4 1 3 4 8 8 11 12 12 11 11 12 8 5 5 4 9 15 18 18 15 11 9 7 5 7 10 10 11 11 9 5 5 5 6 5 4 6 8 9 9 9 10 11 9 5 4 5 7 8 8 9 10 10 11
12 13 12 12 9 9 9 8 8 7 7 6 6 4 4 5 5 5 5 5 5 5 4 3 3 4 5 6 6 6 2 2 4 5 5 7 8 10 12 11 11 11 11 8 11 14 14 12 7 9 8 8 5 3 3 4 9 11 11 9 4 4 3 5 6 7 8 7 8 9 10 8 9 9 4 5 6 8 8 7 6 8 8 9 9
12 10 11 9 9 9 11 8 7 7 7 5 4 4 5 5 5 5 5 5 5 4 4 3 3 4 4 5 5 3 3 4 5 4 5 5 5 6 6 6 10 10 7 6 8 4 3 4 5 7 6 8 7 6 6 7 6 6 5 4 4 4 4 4 4 5 6 7 7 8 8 9 7 3 6 7 8 7 7 7 7 8 7 8 9
14 13 12 10 11 12 11 9 8 5 5 5 5 5 5 6 6 6 6 6 5 5 4 5 5 4 4 4 3 1 3 4 5 6 6 6 6 5 5 6 6 5 6 3 2 3 3 4 6 5 5 6 5 4 4 4 3 4 4 4 4 4 6 7 6 4 4 5 5 5 7 7 7 8 7 7 8 8 7 8 8 8 8 8 8
11 10 10 11 12 10 8 7 6 5 5 6 6 7 7 7 7 5 6 5 6 6 5 5 6 6 5 5 4 3 3 5 6 7 8 12 11 7 5 4 5 4 3 6 4 2 3 5 5 5 5 4 4 4 4 5 4 4 5 5 4 5 4 3 4 4 5 4 4 4 5 6 8 7 7 7 8 8 8 8 9 8 8 9 9
11 11 10 12 12 7 6 7 8 6 5 4 4 4 8 11 8 6 6 10 16 17 12 8 8 6 6 5 4 5 5 6 9 13 13 11 8 9 8 10 3 3 7 10 5 5 5 3 4 4 3 4 3 4 4 5 5 5 5 6 5 4 4 4 4 5 6 5 5 4 5 5 5 7 8 8 7 8 8 10 9 9 8 9 10
11 11 11 11 10 7 6 7 6 5 4 4 4 3 2 6 13 16 15 13 12 15 17 19 19 17 8 4 3 6 8 10 11 11 10 7 7 7 9 4 7 7 9 5 6 5 4 4 3 3 3 2 3 3 3 4 4 4 5 5 5 5 5 4 4 6 6 5 5 5 5 4 5 5 7 8 8 8 7 8 8 8 9 8 9
12 13 10 6 9 7 6 6 5 6 5 5 4 3 3 4 5 9 13 14 14 14 14 13 12 9 7 5 2 0 6 9 10 9 7 7 7 8 5 7 9 10 7 8 5 4 3 4 3 3 2 2 3 3 3 3 4 4 5 5 5 5 5 5 6 6 6 5 5 5 5 5 4 5 5 5 8 8 8 8 8 8 9 8 9
12 11 11 8 8 7 7 6 6 6 6 6 5 4 4 4 5 4 6 11 9 6 5 6 3 2 3 4 6 6 7 8 8 6 6 7 6 7 4 12 12 10 10 7 6 5 3 4 2 1 2 2 2 2 2 2 3 3 3 4 5 5 6 7 8 7 5 4 4 4 5 5 5 6 5 6 5 7 7 8 8 8 9 8 8
15 11 12 13 8 7 7 6 6 6 5 5 5 5 4 4 3 2 3 3 5 6 5 7 7 5 3 3 5 6 8 7 5 5 6 6 6 5 6 9 15 15 10 5 5 5 4 3 2 2 2 2 2 2 2 3 3 3 3 3 4 5 6 7 5 5 5 5 5 5 5 4 5 5 5 5 5 5 5 7 8 8 8 8 8
11 9 12 9 9 8 8 7 6 5 5 6 6 6 5 4 4 3 3 4 5 6 3 3 6 4 2 4 6 7 7 4 3 4 6 6 5 2 10 7 5 5 6 4 4 5 4 2 2 2 2 2 3 2 3 3 3 3 3 4 3 4 5 5 4 5 5 5 5 5 5 5 5 5 5 5 5 4 4 3 6 7 7 6 6
10 8 8 11 10 7 7 5 5 5 5 5 5 5 5 4 4 4 3 2 3 2 0 0 1 4 5 3 1 4 8 1 4 5 8 8 6 2 4 3 5 4 3 2 3 3 3 2 2 1 2 1 2 3 3 3 3 3 4 4 4 4 4 4 5 5 5 5 5 5 5 5 5 5 5 4 4 4 4 5 5 3 6 7 6
8 8 7 7 9 10 7 5 5 5 4 5 5 5 4 4 3 3 4 3 3 2 3 0 1 1 2 4 5 6 9 5 7 9 10 10 12 9 5 5 5 3 4 2 2 2 3 1 1 1 1 2 2 3 3 3 3 3 4 4 4 4 4 4 5 5 5 5 5 5 4 5 5 5 5 5 5 4 4 4 4 6 6 6 8
9 8 7 7 8 7 6 5 5 8 5 4 4 4 4 5 4 4 4 3 3 3 3 2 2 2 1 1 3 3 3 6 8 9 10 9 7 5 5 4 3 4 2 1 1 1 1 1 1 1 1 1 2 2 3 3 4 4 3 3 3 4 6 5 6 5 4 4 4 5 5 5 5 5 5 4 4 4 5 4 4 5 5 7 6
6 7 8 12 10 7 5 5 6 5 4 4 4 5 5 5 5 5 4 4 4 3 3 3 3 2 4 2 0 2 2 2 2 3 3 3 3 3 3 4 3 3 1 1 1 1 1 1 2 1 1 1 1 2 2 4 3 4 4 3 4 3 4 4 5 5 4 4 4 4 4 4 4 4 4 4 4 4 5 5 5 4 5 5 5
4 4 8 12 6 7 6 6 5 4 5 4 5 4 4 5 5 5 5 5 5 4 4 4 4 3 3 1 1 2 3 3 2 1 1 1 1 2 2 3 3 1 1 1 1 1 1 2 1 1 2 2 2 2 2 3 3 4 3 4 3 4 4 4 4 4 5 5 5 5 5 5 5 5 5 4 4 4 4 5 5 5 5 5 6
4 5 5 7 7 6 5 5 4 4 4 4 4 5 5 5 4 5 5 5 5 5 5 5 4 4 3 5 7 7 5 5 3 2 2 1 1 1 1 1 1 1 1 0 1 1 1 1 2 2 2 2 2 2 3 3 3 3 4 4 4 4 4 4 4 4 4 4 4 5 5 5 5 5 5 5 6 6 5 5 5 5 5 5 6
4 6 5 5 7 5 5 5 5 6 5 5 5 5 5 5 4 4 5 5 6 6 5 4 5 3 5 8 8 12 6 5 3 4 1 1 1 1 0 0 0 0 0 0 0 1 1 1 1 1 2 2 2 2 2 3 3 4 4 4 4 4 4 5 5 5 5 5 5 5 5 5 5 5 6 6 5 5 5 5 5 5 5 5 5
4 5 4 4 4 5 5 5 5 5 6 6 6 5 5 5 5 5 4 5 5 5 5 5 4 2 0 4 6 9 6 5 5 3 3 2 1 1 0 0 0 0 0 1 1 1 1 1 1 1 1 2 2 1 2 3 2 3 3 3 4 5 5 5 5 5 5 5 5 5 5 5 5 4 5 5 5 5 5 5 5 5 5 5 5
4 4 4 4 4 4 4 4 4 5 4 5 5 5 5 5 4 4 4 4 5 4 4 4 4 3 2 2 3 4 5 4 5 4 3 2 1 1 1 0 0 1 1 1 1 1 0 1 1 3 2 2 2 2 2 2 2 2 3 3 3 4 5 5 6 7 7 7 7 6 6 5 5 5 5 6 5 6 5 5 5 5 5 5 5
3 4 4 3 3 3 3 4 2 3 4 4 3 3 4 4 4 4 4 4 5 4 4 4 4 4 4 2 2 4 4 4 4 4 3 3 2 2 1 1 0 0 0 1 1 1 1 1 1 2 3 3 3 2 3 3 2 3 2 3 3 4 5 6 6 6 6 6 6 7 6 6 6 6 6 5 5 5 6 5 5 5 5 5 4
2 3 3 3 2 3 3 3 3 3 4 4 4 4 4 4 4 4 4 4 4 4 4 4 4 4 5 4 3 4 4 3 3 3 4 2 2 2 2 1 1 0 0 0 0 1 1 1 1 1 2 3 3 3 3 2 3 3 3 3 3 4 4 5 5 6 6 6 6 6 6 6 6 6 7 6 6 5 5 6 5 4 4 5 5
2 3 3 2 2 2 2 2 2 3 3 3 4 4 4 4 4 4 5 5 4 5 4 4 4 5 5 5 5 4 5 4 4 4 4 3 3 3 1 1 0 0 0 0 0 1 1 1 0 1 1 1 2 3 3 3 3 3 2 3 3 4 4 5 5 5 5 6 6 5 6 6 6 6 7 6 5 5 6 5 5 5 4 4 4
1 1 1 2 2 2 2 2 2 3 3 3 3 4 4 4 4 4 4 4 4 5 4 4 4 4 5 4 5 4 4 4 4 5 3 3 4 3 2 2 1 1 0 0 1 0 1 0 1 1 1 1 1 2 3 3 3 3 3 3 3 4 6 7 5 5 5 6 5 5 5 6 6 6 6 6 5 5 5 6 5 4 4 4 3
2 1 1 1 1 1 2 2 2 2 3 2 2 3 3 3 3 3 3 3 4 3 4 4 4 4 4 4 4 4 4 5 4 4 4 4 3 3 3 2 1 1 0 0 1 1 1 1 1 1 1 1 1 1 2 2 3 3 2 3 4 8 10 10 7 6 8 6 5 5 4 4 5 5 6 5 6 5 5 5 4 5 4 4 3
3 2 2 2 1 1 0 0 1 0 0 1 1 2 2 3 3 3 3 3 3 3 3 3 3 3 4 4 4 4 4 4 4 4 4 4 4 3 3 2 1 1 1 0 1 1 1 1 1 1 1 1 1 1 2 2 3 3 3 3 6 9 9 11 9 10 9 5 6 5 5 5 5 5 5 5 5 6 5 5 5 5 4 4 3
3 3 3 3 3 2 2 2 1 1 1 0 1 1 2 2 2 2 2 3 3 3 3 3 3 2 3 4 4 4 4 4 4 3 3 3 3 3 3 2 1 0 1 1 1 1 1 1 1 1 1 2 2 2 2 3 3 4 4 6 7 8 9 9 7 8 12 9 5 5 5 5 5 5 5 5 5 5 7 5 5 4 4 3 3
Wind_Direction
197 212 206 211 201 210 217 219 228 229 232 233 236 235 220 233 236 241 244 243 243 248 242 232 239 249 258 260 260 261 267 270 267 263 257 256 252 251 253 245 247 249 248 250 243 241 244 244 245 246 243 240 239 237 241 247 260 269 280 282 284 282 287 289 283 275 258 250 275 289 298 18 360 150 108 121 56 47 96 93 91 35 5 26 33
191 189 187 202 210 213 216 222 224 226 230 230 225 221 214 226 233 238 246 250 246 242 236 236 244 251 253 253 252 257 265 267 265 258 254 252 254 252 252 250 249 251 246 250 247 245 245 245 246 245 244 247 240 241 242 250 250 259 256 265 261 267 272 291 309 299 275 243 252 289 300 266 231 242 105 123 334 158 63 260 186 189 50 76 42
186 177 179 187 202 203 213 222 222 223 220 219 221 220 222 229 228 242 246 244 232 235 240 241 247 247 248 246 252 257 259 260 255 252 252 250 254 256 255 254 249 245 245 244 242 239 242 244 246 241 239 244 244 247 245 248 251 251 254 251 256 260 266 275 287 302 298 293 254 249 275 292 159 259 16 226 165 143 81 276 236 147 171 222 255
183 181 183 190 191 200 211 216 220 220 219 220 224 224 228 233 232 238 237 233 241 240 237 246 246 241 240 246 251 258 259 257 252 248 248 248 248 250 251 250 250 251 254 254 244 239 241 244 243 237 237 240 242 244 243 242 243 247 248 246 250 257 263 265 263 275 301 299 277 274 250 263 287 295 303 336 61 318 235 231 123 232 248 208 215
179 184 185 191 192 204 211 212 222 227 228 225 227 229 232 233 227 227 228 234 235 237 244 241 237 233 244 252 258 257 255 250 248 248 247 247 249 251 253 253 251 252 252 253 253 247 243 240 241 236 231 238 241 238 237 237 235 238 240 242 239 242 253 255 261 273 281 292 290 280 295 288 268 276 329 356 318 330 345 359 262 237 216 210 179
182 181 189 195 199 205 208 211 219 225 227 229 230 232 234 232 227 226 221 228 235 238 241 232 231 244 251 256 258 258 255 252 250 249 249 246 248 250 252 253 253 251 250 246 244 242 243 237 237 232 231 232 238 236 232 232 232 235 237 238 235 238 250 257 263 264 267 270 284 291 258 271 281 274 259 258 280 308 312 305 318 355 243 256 217
177 186 191 196 202 206 205 209 214 221 227 231 234 235 235 231 224 217 215 231 237 225 221 225 240 249 254 257 258 255 253 250 249 249 249 248 246 246 250 253 252 250 247 244 241 240 238 238 236 230 230 230 232 233 230 230 228 229 226 225 228 236 240 250 245 247 249 265 275 273 275 255 240 258 262 221 214 227 258 306 338 292 23 339 296
179 186 186 199 205 207 203 209 216 220 222 227 232 236 230 214 215 218 223 226 214 213 223 240 251 251 255 258 256 255 253 252 249 247 247 246 247 247 250 253 254 253 252 248 243 238 237 237 235 230 227 228 227 230 223 228 221 227 221 213 220 223 232 238 241 234 244 254 252 270 273 272 257 233 243 229 233 270 243 197 257 290 293 257 242
180 184 189 201 207 202 202 206 211 215 220 225 231 232 227 216 215 218 212 214 213 218 233 244 253 254 251 253 255 253 251 249 246 241 242 244 240 246 247 248 249 251 250 248 244 239 237 235 233 231 228 232 231 228 225 221 213 223 220 210 220 218 228 227 230 236 243 242 253 256 264 264 262 234 210 193 201 209 218 171 247 260 275 289 295
184 186 195 200 199 198 200 202 203 212 216 222 224 226 226 218 212 214 215 208 219 229 243 248 251 253 256 256 252 249 247 244 244 244 241 233 225 229 233 234 235 236 240 242 240 228 236 235 235 236 236 236 236 237 237 237 231 219 219 208 215 219 216 217 219 225 229 235 235 240 245 248 247 258 237 221 216 216 162 45 255 260 265 291 272
187 187 197 195 192 194 198 203 204 211 213 215 216 218 222 218 212 215 217 217 233 238 245 250 249 251 252 252 250 247 246 244 247 249 250 250 247 234 222 223 223 229 232 235 241 240 229 233 233 236 235 236 238 239 240 240 241 238 231 218 210 209 210 215 221 211 219 228 229 227 238 247 245 246 259 254 217 203 198 214 226 239 192 270 274
183 188 191 186 187 194 199 203 205 208 204 206 205 209 215 216 210 209 211 226 233 239 247 249 250 252 251 251 250 248 248 251 253 255 256 257 256 253 250 254 252 245 237 238 249 248 243 239 230 222 217 221 224 234 240 243 243 243 242 241 230 218 213 210 210 214 214 222 223 225 224 234 240 234 245 246 237 248 220 207 201 194 208 246 266
182 184 188 185 189 191 196 199 199 198 205 202 203 203 205 211 215 214 218 229 238 244 253 256 254 249 247 248 250 250 252 257 261 263 263 262 260 258 255 254 255 257 251 240 246 249 239 228 226 216 218 226 227 224 225 234 242 244 246 244 242 241 234 225 217 214 207 215 219 226 219 221 229 232 218 214 212 228 229 237 244 242 219 230 249
173 181 180 187 189 187 188 193 195 189 192 202 201 209 212 220 201 212 223 233 241 252 252 253 252 249 247 249 254 256 256 261 262 263 263 263 262 260 255 257 256 257 256 260 265 255 231 221 222 221 211 212 215 216 215 223 228 240 249 256 259 251 244 242 240 231 221 212 213 225 218 207 229 220 217 220 233 228 217 230 222 230 234 231 231
165 178 179 185 183 182 194 190 194 187 195 200 207 215 216 219 218 220 222 235 246 242 244 251 251 252 253 253 256 258 257 260 261 261 262 263 263 264 257 257 258 254 251 253 262 259 233 222 220 226 214 208 218 214 213 217 215 221 231 240 244 247 252 253 244 244 247 240 224 221 219 212 219 219 214 213 222 228 210 214 214 219 231 248 263
178 176 180 182 176 178 180 184 191 181 187 185 208 214 211 213 220 217 226 240 240 245 250 249 255 254 254 252 252 257 258 262 264 265 265 265 266 263 255 256 252 231 249 265 274 276 242 222 216 227 223 221 223 223 216 208 211 217 224 230 236 239 242 240 239 238 234 236 244 247 241 233 226 214 212 211 219 225 231 235 241 233 241 261 254
187 177 180 177 172 178 182 177 178 183 184 195 194 204 214 205 191 192 235 242 248 248 249 252 250 253 255 252 249 255 260 264 266 268 267 265 263 257 259 256 245 244 251 273 283 285 263 216 218 218 226 226 236 236 230 213 201 212 218 227 230 231 241 244 244 245 244 243 243 243 245 247 248 249 240 225 216 209 212 223 233 207 221 244 249
185 182 185 174 175 165 172 171 178 191 179 193 196 206 202 207 204 196 225 237 247 248 251 254 251 249 253 252 248 251 259 264 268 268 268 268 265 261 248 229 266 248 275 286 285 286 286 282 239 215 223 223 232 240 235 226 199 197 210 226 233 237 245 241 230 239 245 248 248 247 246 246 245 244 245 247 241 220 202 223 217 177 219 222 242
183 189 185 161 161 162 164 172 182 176 182 195 183 203 209 202 204 202 228 242 251 253 255 259 261 258 253 255 259 258 260 268 273 279 279 278 272 257 212 223 274 271 268 288 293 286 279 277 277 263 232 231 241 241 239 230 206 195 204 204 217 235 241 222 221 229 226 229 243 246 251 250 247 241 238 242 243 245 232 219 216 209 223 228 228
166 153 141 150 163 167 174 180 181 177 195 175 166 196 177 191 215 225 235 236 244 246 250 254 261 263 261 257 257 258 263 267 272 275 276 275 274 262 128 236 271 280 285 278 283 287 272 258 253 265 281 291 289 274 265 257 230 211 212 201 207 240 238 216 221 217 221 213 229 225 234 239 244 246 243 235 240 237 240 237 227 222 225 225 219
192 187 154 159 160 175 180 174 185 189 182 179 184 179 181 206 210 219 230 235 239 250 255 255 259 262 261 260 263 261 251 260 269 273 276 278 273 269 109 251 255 274 273 274 263 260 266 258 241 247 266 276 282 277 274 275 279 271 213 212 222 238 236 212 231 220 217 218 222 221 223 226 229 234 237 239 231 230 229 231 233 231 230 227 223
190 172 177 176 174 175 170 158 158 153 152 161 157 169 185 202 218 217 225 237 244 251 249 247 254 263 266 263 257 261 258 254 259 272 277 278 269 281 294 266 272 253 256 249 252 249 249 240 236 246 264 276 279 279 278 277 275 276 269 262 246 239 242 232 225 208 212 213 210 210 214 212 219 218 226 227 228 227 226 227 228 230 235 234 229
174 165 170 170 172 170 163 159 163 152 161 155 166 181 190 191 209 210 223 233 241 249 251 252 258 263 271 266 259 258 255 252 250 246 265 296 286 285 290 291 284 275 265 260 263 274 265 255 252 272 282 281 278 276 274 270 266 259 261 263 266 270 267 251 231 217 208 211 204 208 211 210 213 220 218 225 226 221 224 225 228 230 233 237 236
157 171 171 178 170 173 154 158 147 153 160 157 172 181 194 199 202 217 214 223 232 240 247 243 245 257 267 276 270 256 259 241 268 304 302 305 301 292 289 284 278 268 257 253 256 261 265 245 256 283 282 278 273 267 267 277 308 316 329 328 327 322 316 298 262 234 213 206 201 206 216 212 213 223 224 222 219 208 220 227 229 229 230 234 236
172 174 182 175 176 145 158 151 157 148 161 165 175 173 194 188 213 217 217 221 222 233 243 239 245 258 268 273 284 287 254 211 275 293 314 318 306 291 283 280 281 279 275 271 274 263 276 281 276 274 280 301 325 345 360 330 322 326 323 324 329 334 314 292 281 278 233 206 205 216 222 218 214 222 222 196 186 189 208 220 224 229 232 234 236
187 194 185 179 183 170 171 166 163 173 172 179 171 174 174 197 205 211 212 213 217 229 237 237 242 247 259 261 267 263 251 330 299 293 286 296 294 289 287 290 289 284 281 286 286 285 283 285 328 3 359 343 347 357 345 343 337 337 338 338 337 302 290 285 279 271 260 239 221 219 223 224 223 227 193 160 180 207 201 210 204 221 218 224 229
196 196 192 189 160 168 168 167 169 166 158 165 179 185 195 203 209 217 208 211 217 222 226 229 236 238 248 255 254 255 300 304 293 289 286 286 283 279 290 294 290 287 293 287 288 299 322 356 20 14 11 352 352 360 7 7 6 350 340 324 310 313 298 278 267 272 270 254 228 219 225 226 225 187 185 194 206 210 194 200 201 214 204 212 219
196 193 183 167 169 157 157 174 172 172 180 181 186 189 193 198 205 211 205 206 207 216 215 217 221 224 229 254 232 234 291 301 286 279 279 275 263 262 260 259 246 246 265 271 96 62 45 31 30 28 16 21 4 356 3 8 1 344 327 318 312 317 312 306 306 294 299 312 309 267 226 218 210 212 207 201 211 209 192 195 200 208 201 197 207
201 193 172 148 167 171 172 161 174 170 181 193 201 200 193 199 207 220 225 213 207 204 210 223 227 223 228 248 222 205 240 258 260 253 254 256 255 248 225 215 264 256 283 123 110 81 45 34 24 25 28 15 10 358 355 351 349 349 340 332 334 332 332 352 336 337 322 317 304 304 292 228 218 209 207 204 207 208 191 198 204 204 199 198 207
185 188 179 168 150 166 173 173 148 173 179 187 183 206 220 217 205 203 235 229 229 232 223 224 226 211 227 227 184 193 205 220 259 281 285 297 317 319 306 298 342 71 62 76 65 69 47 67 42 30 32 14 20 10 358 351 344 344 347 340 338 332 345 351 349 335 325 316 311 305 297 296 250 213 206 210 207 208 199 195 204 199 198 196 206
200 180 160 181 180 168 170 168 171 171 181 183 183 180 196 243 235 224 218 230 232 235 238 237 243 247 232 182 245 270 287 294 291 289 295 315 316 319 307 23 58 38 22 62 50 49 43 53 35 29 33 31 30 7 6 349 342 339 336 333 330 337 343 338 339 332 320 320 320 312 307 298 303 277 215 201 208 206 204 204 206 203 206 204 205
198 183 172 177 181 180 161 163 164 175 184 179 179 159 183 212 264 257 245 235 237 245 245 249 255 272 277 266 252 215 279 280 285 292 307 316 321 315 330 64 58 56 51 82 83 60 50 63 48 21 19 28 24 359 3 342 341 337 335 331 333 337 337 330 326 321 298 313 321 319 316 314 306 311 302 247 204 205 204 207 205 208 209 210 211
212 202 188 176 172 173 173 168 176 178 177 175 173 172 173 183 218 243 253 249 260 280 279 260 285 329 273 280 286 285 283 289 295 303 314 322 326 308 54 71 66 66 71 63 101 90 75 71 66 36 21 5 350 338 343 347 334 328 325 325 321 327 321 315 314 296 296 326 329 315 313 316 318 316 309 311 274 216 206 208 208 209 210 210 212
213 207 190 172 169 162 175 172 170 180 177 167 164 163 178 171 174 204 232 277 282 301 344 20 23 21 6 309 300 298 297 301 310 322 334 331 326 296 95 72 66 60 76 99 91 102 95 86 55 41 4 355 352 339 342 339 337 323 318 310 306 307 314 314 312 308 325 339 330 318 319 322 327 320 316 313 313 301 227 208 206 207 207 209 214
215 209 192 179 173 167 169 176 172 166 168 174 170 168 173 167 182 189 193 211 224 240 283 333 356 10 341 312 293 294 308 314 332 356 0 358 321 41 59 44 49 32 44 52 80 91 89 77 59 28 11 351 344 347 336 327 325 330 316 311 309 316 318 319 309 321 336 334 325 323 328 328 325 330 327 322 322 318 315 267 211 202 205 209 220
212 203 187 187 183 166 171 149 164 169 177 167 159 160 161 161 185 201 205 210 202 189 295 295 278 308 320 336 263 324 341 329 40 36 32 24 355 27 77 80 80 72 74 58 80 81 91 80 59 16 7 360 347 344 328 326 329 331 316 328 332 322 313 309 331 342 338 325 322 332 335 331 334 331 321 312 311 313 311 318 315 275 217 216 216
207 202 188 183 182 148 140 141 156 168 174 164 164 160 162 162 177 202 212 224 198 182 181 230 347 337 7 7 2 343 353 39 73 59 49 47 54 61 92 108 111 100 73 57 63 72 67 46 58 34 17 9 348 329 325 324 324 331 338 344 317 323 311 344 352 349 328 331 332 331 327 324 329 327 325 320 319 316 312 317 309 307 305 252 219
205 198 187 169 169 152 142 147 161 175 172 167 163 162 159 167 181 187 202 209 215 190 190 226 214 156 182 252 14 19 331 11 40 43 34 36 36 40 62 84 88 92 84 35 59 78 67 16 52 54 356 1 345 339 334 328 329 333 336 332 337 320 352 356 344 339 330 332 327 328 326 323 324 323 321 316 308 310 314 313 312 312 298 303 290
209 191 165 169 175 154 141 142 165 166 169 169 163 167 170 170 181 184 185 185 213 192 186 176 166 184 229 245 305 331 29 36 54 62 49 45 52 59 79 77 84 81 76 43 12 32 22 10 343 6 8 5 349 340 332 328 333 330 332 328 333 328 344 345 345 335 331 323 321 316 316 312 314 312 310 304 299 305 305 304 305 300 299 295 293
176 160 171 165 143 156 152 155 159 165 178 165 167 168 169 182 187 184 170 174 190 188 195 189 210 223 217 179 175 116 124 131 130 160 130 68 69 40 71 82 73 79 62 3 17 355 4 331 326 354 346 342 341 334 340 339 334 329 328 329 340 342 342 337 330 335 329 324 317 319 316 314 307 302 297 289 296 294 295 304 297 291 285 282 283
158 154 150 160 151 144 149 157 165 165 174 179 169 177 191 186 178 169 166 180 180 185 189 202 209 235 209 213 201 170 142 157 159 140 151 144 140 80 63 81 108 79 32 36 332 332 327 326 331 336 342 334 336 343 345 346 341 346 341 335 336 335 332 330 325 327 323 323 321 316 313 306 306 303 306 302 305 308 305 294 286 284 284 281 281
150 128 121 131 154 149 151 168 171 180 177 177 181 189 188 191 181 174 178 179 183 179 184 198 216 239 257 282 213 162 125 144 138 144 133 140 139 167 148 163 190 191 191 226 245 317 335 344 334 341 333 336 346 340 353 356 349 350 345 344 342 338 340 338 334 327 328 321 320 313 312 312 315 314 308 307 299 295 292 290 285 284 281 278 280
143 133 124 132 136 158 170 170 167 170 183 192 192 190 186 183 184 180 180 178 179 176 180 190 210 225 285 11 79 105 117 150 152 159 158 160 179 170 182 218 257 251 241 251 251 242 252 275 308 309 311 313 317 320 335 321 335 341 345 345 341 333 338 332 333 330 326 323 319 314 313 311 309 303 299 294 292 292 284 290 292 287 287 284 284
123 114 129 134 142 151 158 166 167 182 192 187 183 181 179 181 175 177 179 180 180 181 179 187 185 185 185 105 101 102 135 142 155 159 167 159 167 181 219 243 274 316 335 339 337 8 99 37 345 326 322 322 328 335 333 327 336 343 340 346 343 338 337 335 334 333 328 325 320 322 320 316 314 310 304 305 305 301 299 293 292 292 292 291 285
98 105 128 126 135 147 162 174 164 165 165 165 169 177 178 174 180 180 177 179 183 179 184 180 179 177 179 177 153 156 163 164 165 169 173 176 180 202 228 240 246 257 307 339 341 19 45 33 18 358 346 333 337 338 339 333 340 337 336 346 348 340 332 327 321 315 313 312 314 318 318 320 319 316 309 304 305 301 298 295 295 301 301 298 298
90 112 127 149 147 164 143 157 149 161 167 172 169 175 176 179 178 175 179 180 182 183 184 181 180 181 181 186 192 187 176 184 183 182 180 185 195 215 221 226 245 241 250 255 322 45 24 41 29 347 330 319 323 331 332 341 340 342 343 354 340 320 311 307 307 313 312 313 311 311 309 310 307 304 305 307 304 300 292 292 288 283 286 295 291
99 144 165 153 166 164 141 130 144 168 169 175 174 175 180 183 176 172 176 181 188 185 184 185 181 186 182 184 186 197 187 187 193 194 198 199 204 208 236 249 269 267 305 317 49 79 65 40 359 324 308 312 324 331 337 334 340 335 338 340 337 326 320 319 318 312 308 307 308 304 307 307 307 311 309 308 305 302 302 296 300 300 296 290 293
109 152 158 127 123 141 154 120 169 178 183 184 180 180 178 170 172 179 182 187 190 190 187 185 192 188 182 192 189 186 187 193 191 192 186 191 200 198 192 199 216 233 297 343 2 39 55 17 341 319 320 331 340 340 332 329 330 337 333 334 327 324 332 336 323 317 311 315 311 309 304 303 303 305 308 310 308 308 310 312 314 308 305 303 305
29 20 45 48 108 137 167 168 186 201 203 187 177 181 176 172 179 181 185 191 190 193 187 191 191 190 196 192 181 184 185 177 185 193 195 197 193 198 190 199 183 178 177 292 314 340 354 344 338 317 312 310 321 326 326 329 334 327 328 327 325 341 341 340 336 323 318 319 320 315 306 301 302 305 308 313 312 308 300 301 307 311 312 314 318
14 8 11 16 28 22 28 163 231 233 91 157 185 178 174 176 181 188 189 189 191 194 196 190 192 194 191 184 184 182 181 188 195 196 203 201 201 189 185 182 184 188 178 230 273 288 314 318 331 323 336 330 343 337 322 315 313 313 305 319 343 342 341 340 331 326 331 331 331 322 316 308 307 303 310 313 319 317 319 318 319 316 319 329 336
17 12 11 11 8 1 359 1 9 356 5 211 205 199 191 201 198 186 177 193 200 202 181 194 190 185 196 197 184 181 192 196 197 194 197 197 194 185 186 182 199 248 287 284 293 297 308 334 342 334 346 349 347 331 326 308 300 287 321 353 343 341 341 341 333 322 327 338 336 332 331 327 322 325 329 333 334 336 331 323 320 326 324 322 322